Location: Essen
(51.4609°N, 7.0127°E)
Time: 02:09:56
(UTC+01:00)

ISS - Pass Details

Date: 11 January 2018
Orbit: 401 x 406 km, 51.6° (Epoch: 17 January)

Event Time Altitude Azimuth Distance (km) Brightness Sun altitude
Exits shadow 05:42:28 27° 111° (ESE) 825 -1.7 -25.7°
Drops below altitude 10° 05:44:05 10° 108° (ESE) 1,464 0.0 -25.5°
Sets 05:46:10 0° 107° (ESE) 2,324 1.3 -25.1°
